Precipitable_Water
0.16 0.17 0.14 0.14 0.16 0.16 0.17 0.21 0.24 0.34 0.37 0.49 0.61 0.71 0.88 1.04 1.12 1.18 1.27 1.39 1.49 1.47 1.46 1.44 1.36 1.31 1.26
0.15 0.16 0.16 0.15 0.15 0.16 0.16 0.16 0.19 0.25 0.33 0.38 0.52 0.64 0.80 0.99 1.02 1.14 1.18 1.27 1.32 1.43 1.44 1.45 1.43 1.35 1.29
0.15 0.18 0.19 0.19 0.16 0.16 0.18 0.17 0.18 0.20 0.30 0.30 0.37 0.47 0.59 0.74 0.79 0.91 1.07 1.18 1.24 1.30 1.39 1.42 1.41 1.40 1.33
0.16 0.17 0.18 0.20 0.20 0.16 0.15 0.18 0.18 0.21 0.20 0.30 0.32 0.37 0.50 0.64 0.79 0.88 0.95 1.08 1.18 1.29 1.39 1.41 1.37 1.37 1.37
0.17 0.17 0.18 0.19 0.19 0.19 0.18 0.19 0.20 0.21 0.21 0.23 0.30 0.37 0.41 0.46 0.55 0.72 0.79 0.90 1.06 1.14 1.20 1.38 1.37 1.31 1.32
0.19 0.18 0.18 0.20 0.20 0.20 0.18 0.15 0.13 0.19 0.18 0.16 0.21 0.24 0.31 0.38 0.41 0.54 0.65 0.77 0.90 1.02 1.11 1.14 1.34 1.34 1.23
0.19 0.19 0.18 0.19 0.20 0.19 0.20 0.17 0.15 0.16 0.18 0.15 0.17 0.17 0.23 0.26 0.36 0.43 0.50 0.62 0.71 0.85 0.94 1.01 1.09 1.29 1.27
0.22 0.21 0.23 0.23 0.24 0.23 0.22 0.22 0.21 0.20 0.22 0.17 0.19 0.17 0.21 0.27 0.33 0.44 0.50 0.57 0.67 0.77 0.88 0.95 0.98 1.11 1.25
0.24 0.24 0.24 0.25 0.26 0.26 0.24 0.23 0.20 0.19 0.26 0.24 0.23 0.23 0.25 0.24 0.28 0.34 0.41 0.51 0.61 0.73 0.83 0.88 0.96 1.07 1.13
0.22 0.23 0.24 0.24 0.26 0.27 0.25 0.21 0.21 0.18 0.18 0.18 0.17 0.18 0.15 0.18 0.21 0.32 0.47 0.55 0.55 0.71 0.81 0.88 0.91 0.96 1.03
0.25 0.23 0.22 0.21 0.23 0.25 0.25 0.24 0.21 0.19 0.20 0.24 0.21 0.21 0.20 0.17 0.19 0.22 0.29 0.42 0.44 0.53 0.65 0.81 0.89 0.92 0.91
0.18 0.17 0.17 0.18 0.20 0.23 0.24 0.25 0.27 0.24 0.23 0.25 0.22 0.22 0.21 0.18 0.17 0.22 0.25 0.32 0.42 0.48 0.52 0.67 0.77 0.89 0.92
0.16 0.16 0.18 0.20 0.21 0.22 0.23 0.23 0.25 0.27 0.28 0.29 0.27 0.25 0.24 0.21 0.19 0.20 0.22 0.26 0.37 0.45 0.46 0.58 0.65 0.81 0.80
0.17 0.19 0.20 0.20 0.20 0.21 0.20 0.21 0.21 0.20 0.22 0.23 0.24 0.24 0.22 0.22 0.22 0.20 0.23 0.22 0.32 0.41 0.47 0.55 0.66 0.77 0.81
0.18 0.18 0.19 0.19 0.19 0.21 0.21 0.21 0.19 0.18 0.18 0.21 0.23 0.23 0.23 0.22 0.20 0.20 0.20 0.21 0.28 0.33 0.35 0.41 0.49 0.61 0.68
0.19 0.19 0.19 0.19 0.19 0.20 0.20 0.20 0.19 0.18 0.18 0.19 0.21 0.21 0.21 0.21 0.23 0.19 0.19 0.19 0.25 0.29 0.31 0.35 0.43 0.53 0.64
0.18 0.18 0.19 0.19 0.19 0.19 0.19 0.19 0.19 0.19 0.19 0.20 0.20 0.19 0.16 0.14 0.16 0.22 0.19 0.19 0.22 0.26 0.28 0.34 0.39 0.43 0.54
Wind_Speed
68 67 66 65 65 66 68 68 68 66 65 64 63 62 61 61 60 59 58 54 56 59 59 57 55 53 51
70 69 69 66 67 67 68 70 71 70 69 68 67 64 63 61 61 61 58 59 60 60 62 60 59 57 55
71 70 70 69 68 68 68 69 71 72 72 71 71 69 68 67 65 64 62 60 60 62 64 62 60 58 56
68 69 68 68 68 68 68 68 70 70 73 74 73 72 71 68 66 65 63 63 60 61 64 65 64 61 58
64 65 64 64 66 66 68 68 69 69 71 72 72 71 72 72 71 69 67 65 63 63 60 69 68 67 64
58 60 61 62 63 65 66 67 70 71 72 75 76 78 74 75 75 75 72 70 66 65 64 61 71 70 68
54 54 56 56 58 60 61 63 65 67 69 73 73 78 78 77 75 76 75 74 72 69 68 66 64 71 71
48 50 51 51 52 54 57 60 62 64 64 70 69 74 75 76 75 74 72 73 73 72 69 67 66 66 73
46 48 48 49 50 50 51 51 55 57 57 62 65 67 69 73 74 75 76 73 72 71 71 69 68 68 69
42 43 45 46 47 48 48 50 51 53 53 57 62 65 69 73 74 72 69 69 68 67 68 66 65 65 67
39 39 41 43 44 45 47 49 50 53 50 52 55 60 64 68 71 74 74 72 71 70 71 69 66 63 62
39 40 40 41 42 43 44 46 48 51 49 50 53 55 60 64 68 71 73 73 71 70 69 70 70 67 64
37 38 39 39 40 41 43 44 46 47 47 49 51 53 57 62 65 68 70 72 71 69 68 68 67 69 65
37 38 38 38 39 39 41 41 43 44 44 46 49 51 54 58 62 66 71 71 71 70 66 64 62 65 67
35 36 37 37 37 38 39 40 40 41 41 42 44 47 51 54 58 64 68 72 71 70 69 68 67 67 66
35 35 36 36 37 37 38 39 40 40 40 40 42 44 47 52 57 60 64 70 73 71 71 70 67 63 64
35 36 37 38 38 38 38 39 40 40 41 41 42 43 45 48 49 55 60 65 69 71 72 72 67 64 62
Wind_Direction
270 269 267 265 263 262 260 258 257 255 254 253 251 250 250 248 247 248 246 245 242 240 239 239 238 238 239
271 270 268 266 264 262 260 258 256 254 254 252 251 250 247 247 247 246 246 245 243 241 239 238 238 238 238
270 270 269 268 265 262 260 258 257 255 252 251 250 249 247 246 247 246 245 245 246 243 238 237 236 236 237
270 269 268 268 266 264 261 258 256 254 253 251 250 248 246 245 244 244 243 245 245 243 239 236 235 235 236
270 269 268 267 265 265 263 260 256 254 252 250 247 246 245 245 244 243 243 244 244 243 242 237 236 236 237
270 268 268 267 266 265 264 262 257 253 254 251 248 246 245 245 245 243 243 243 243 241 240 242 237 236 236
271 270 269 268 267 266 263 262 259 256 254 251 249 247 245 245 244 243 242 242 242 241 240 241 240 236 235
271 270 270 269 268 267 265 263 261 257 255 251 249 247 244 242 242 241 240 240 240 238 238 239 241 238 234
273 272 271 270 269 269 266 264 262 259 256 252 248 247 243 242 241 242 240 241 238 236 237 239 239 237 236
274 274 273 272 270 268 267 265 264 262 258 256 251 249 246 243 240 237 234 235 236 234 234 236 237 237 236
276 276 276 274 272 270 267 266 265 262 260 259 254 249 246 242 239 237 236 236 237 235 235 235 235 236 236
278 278 278 277 275 272 270 268 265 263 263 259 256 252 247 244 240 238 235 234 234 233 235 234 235 234 235
280 280 280 279 278 275 273 271 268 265 263 260 257 254 249 245 242 238 236 234 232 230 234 233 233 231 234
282 283 283 282 279 278 275 273 270 268 265 262 258 255 252 248 244 240 235 233 231 229 230 231 231 229 229
285 285 285 284 282 280 277 274 272 270 268 265 261 256 253 249 244 240 236 233 230 229 231 230 232 230 229
287 287 287 285 284 282 279 276 274 272 270 267 264 260 255 250 244 241 238 233 231 230 230 229 228 228 228
289 289 288 287 285 283 281 279 276 273 270 268 264 260 257 252 248 242 239 235 232 230 229 226 227 227 226